| time (UTC) | temp F | wind direction | speed MPH | gust MPH | rain 1hr in | rain 24hr in | rain mn in | humidity % | barometer mb |
| 20260903184304 | 67 | 192 | 6.0 | 12.0 | 0.00 | 0.01 | 0.01 | 92 | 1017.1 |
| 20260903183804 | 67 | 239 | 6.0 | 14.0 | 0.00 | 0.01 | 0.01 | 92 | 1017.1 |
| 20260903182804 | 68 | 227 | 5.0 | 13.0 | 0.00 | 0.01 | 0.01 | 91 | 1017.2 |
| 20260903182306 | 68 | 226 | 7.0 | 16.0 | 0.00 | 0.01 | 0.01 | 91 | 1017.3 |
| 20260903180804 | 68 | 224 | 7.0 | 18.0 | 0.00 | 0.01 | 0.01 | 91 | 1017.3 |
| 20260903174804 | 68 | 218 | 6.0 | 13.0 | 0.00 | 0.01 | 0.01 | 90 | 1017.2 |
| 20260903172805 | 69 | 237 | 7.0 | 18.0 | 0.00 | 0.01 | 0.01 | 90 | 1017.3 |
| 20260903172306 | 69 | 232 | 5.0 | 13.0 | 0.00 | 0.01 | 0.01 | 90 | 1017.2 |
| 20260903171804 | 69 | 210 | 5.0 | 13.0 | 0.00 | 0.01 | 0.01 | 90 | 1017.2 |
| 20260903165804 | 69 | 220 | 7.0 | 18.0 | 0.00 | 0.01 | 0.01 | 89 | 1017.3 |
| 20260903163804 | 70 | 218 | 3.0 | 9.0 | 0.00 | 0.01 | 0.01 | 89 | 1017.4 |
| 20260903162306 | 69 | 210 | 5.0 | 16.0 | 0.00 | 0.01 | 0.01 | 88 | 1017.5 |
| 20260903161304 | 70 | 211 | 8.0 | 15.0 | 0.00 | 0.01 | 0.01 | 87 | 1017.6 |
| 20260903160804 | 70 | 200 | 6.0 | 18.0 | 0.00 | 0.01 | 0.01 | 88 | 1017.6 |
| 20260903154304 | 70 | 215 | 6.0 | 15.0 | 0.00 | 0.01 | 0.01 | 87 | 1017.6 |
| 20260903153804 | 70 | 235 | 9.0 | 16.0 | 0.00 | 0.01 | 0.01 | 87 | 1017.6 |
| 20260903152804 | 70 | 199 | 5.0 | 9.0 | 0.00 | 0.01 | 0.01 | 88 | 1017.7 |
| 20260903152306 | 70 | 207 | 7.0 | 15.0 | 0.00 | 0.01 | 0.01 | 88 | 1017.8 |
| 20260903151304 | 70 | 251 | 5.0 | 12.0 | 0.00 | 0.01 | 0.01 | 87 | 1017.8 |
| 20260903150804 | 70 | 224 | 6.0 | 12.0 | 0.00 | 0.01 | 0.01 | 87 | 1017.8 |
| 20260903150304 | 71 | 240 | 8.0 | 17.0 | 0.00 | 0.01 | 0.01 | 87 | 1017.8 |
| 20260903145306 | 71 | 230 | 6.0 | 13.0 | 0.00 | 0.01 | 0.01 | 87 | 1017.9 |
| 20260903143804 | 71 | 218 | 7.0 | 15.0 | 0.00 | 0.01 | 0.01 | 88 | 1017.8 |
| 20260903143304 | 70 | 211 | 7.0 | 14.0 | 0.00 | 0.01 | 0.01 | 88 | 1017.8 |
| 20260903142804 | 71 | 215 | 6.0 | 13.0 | 0.00 | 0.01 | 0.01 | 88 | 1017.8 |
| 20260903142306 | 71 | 221 | 6.0 | 15.0 | 0.00 | 0.01 | 0.01 | 88 | 1018.0 |
| 20260903141804 | 71 | 208 | 5.0 | 12.0 | 0.00 | 0.01 | 0.01 | 87 | 1018.0 |
| 20260903140304 | 70 | 206 | 3.0 | 12.0 | 0.00 | 0.01 | 0.01 | 88 | 1017.9 |
| 20260903134804 | 70 | 209 | 3.0 | 12.0 | 0.00 | 0.01 | 0.01 | 89 | 1018.0 |
| 20260903134305 | 70 | 218 | 7.0 | 15.0 | 0.00 | 0.01 | 0.01 | 89 | 1017.9 |
| 20260903133304 | 69 | 219 | 5.0 | 12.0 | 0.00 | 0.01 | 0.01 | 89 | 1018.1 |
| 20260903131305 | 69 | 177 | 6.0 | 14.0 | 0.01 | 0.01 | 0.01 | 88 | 1018.4 |
| 20260903130804 | 70 | 214 | 7.0 | 13.0 | 0.01 | 0.01 | 0.01 | 87 | 1018.4 |
| 20260903125305 | 71 | 203 | 6.0 | 13.0 | 0.01 | 0.01 | 0.01 | 86 | 1018.3 |
| 20260903124804 | 71 | 243 | 8.0 | 13.0 | 0.01 | 0.01 | 0.01 | 86 | 1018.3 |
| 20260903124304 | 71 | 219 | 6.0 | 14.0 | 0.01 | 0.01 | 0.01 | 86 | 1018.2 |
| 20260903123804 | 71 | 205 | 5.0 | 12.0 | 0.01 | 0.01 | 0.01 | 87 | 1018.2 |
| 20260903123304 | 71 | 209 | 4.0 | 9.0 | 0.01 | 0.01 | 0.01 | 86 | 1018.2 |
| 20260903122804 | 71 | 209 | 3.0 | 12.0 | 0.00 | 0.00 | 0.00 | 86 | 1018.2 |
| 20260903122306 | 71 | 192 | 2.0 | 8.0 | 0.00 | 0.00 | 0.00 | 85 | 1018.2 |
| 20260903121804 | 71 | 198 | 4.0 | 8.0 | 0.00 | 0.00 | 0.00 | 85 | 1018.2 |
| 20260903120804 | 70 | 221 | 5.0 | 14.0 | 0.00 | 0.00 | 0.00 | 86 | 1018.2 |
| 20260903115804 | 70 | 224 | 5.0 | 13.0 | 0.00 | 0.00 | 0.00 | 86 | 1018.2 |
| 20260903114804 | 70 | 231 | 5.0 | 13.0 | 0.00 | 0.00 | 0.00 | 87 | 1018.2 |
| 20260903113804 | 70 | 255 | 6.0 | 9.0 | 0.00 | 0.00 | 0.00 | 87 | 1018.2 |
| 20260903112804 | 70 | 215 | 4.0 | 9.0 | 0.00 | 0.00 | 0.00 | 89 | 1018.1 |
| 20260903111804 | 69 | 243 | 6.0 | 12.0 | 0.00 | 0.01 | 0.00 | 89 | 1018.3 |
| 20260903111304 | 69 | 238 | 6.0 | 17.0 | 0.00 | 0.01 | 0.00 | 89 | 1018.3 |
| 20260903110804 | 69 | 201 | 5.0 | 13.0 | 0.00 | 0.01 | 0.00 | 89 | 1018.3 |
| 20260903105804 | 69 | 256 | 6.0 | 13.0 | 0.00 | 0.01 | 0.00 | 90 | 1018.2 |
| 20260903105306 | 69 | 220 | 4.0 | 8.0 | 0.00 | 0.01 | 0.00 | 91 | 1018.2 |
| 20260903104806 | 69 | 214 | 5.0 | 12.0 | 0.00 | 0.01 | 0.00 | 91 | 1018.2 |
| 20260903104304 | 68 | 236 | 3.0 | 10.0 | 0.00 | 0.01 | 0.00 | 92 | 1018.3 |
| 20260903103804 | 68 | 228 | 3.0 | 8.0 | 0.00 | 0.01 | 0.00 | 93 | 1018.3 |
| 20260903102305 | 67 | 239 | 5.0 | 12.0 | 0.00 | 0.01 | 0.00 | 92 | 1018.7 |
| 20260903095306 | 67 | 234 | 5.0 | 9.0 | 0.00 | 0.01 | 0.00 | 93 | 1018.7 |
| 20260903094805 | 67 | 251 | 5.0 | 12.0 | 0.00 | 0.01 | 0.00 | 93 | 1018.7 |
| 20260903093304 | 67 | 239 | 5.0 | 12.0 | 0.00 | 0.01 | 0.00 | 93 | 1018.5 |
| 20260903092804 | 67 | 246 | 6.0 | 13.0 | 0.00 | 0.01 | 0.00 | 93 | 1018.5 |
| 20260903092306 | 67 | 247 | 5.0 | 13.0 | 0.00 | 0.01 | 0.00 | 93 | 1018.4 |
| 20260903090304 | 67 | 217 | 7.0 | 12.0 | 0.00 | 0.01 | 0.00 | 94 | 1018.1 |
| 20260903084804 | 66 | 232 | 5.0 | 13.0 | 0.00 | 0.01 | 0.00 | 96 | 1018.0 |
| 20260903084304 | 66 | 232 | 5.0 | 13.0 | 0.00 | 0.01 | 0.00 | 96 | 1017.8 |
| 20260903083304 | 65 | 227 | 9.0 | 14.0 | 0.00 | 0.01 | 0.00 | 97 | 1017.7 |
| 20260903082306 | 65 | 230 | 5.0 | 10.0 | 0.00 | 0.01 | 0.00 | 97 | 1017.5 |
| 20260903081304 | 65 | 205 | 6.0 | 13.0 | 0.00 | 0.01 | 0.00 | 97 | 1017.5 |
| 20260903080804 | 64 | 236 | 7.0 | 14.0 | 0.00 | 0.01 | 0.00 | 97 | 1017.5 |
| 20260903075306 | 64 | 229 | 4.0 | 9.0 | 0.00 | 0.01 | 0.00 | 97 | 1017.4 |
| 20260903074804 | 64 | 210 | 6.0 | 12.0 | 0.00 | 0.01 | 0.00 | 97 | 1017.4 |
| 20260903073804 | 64 | 250 | 5.0 | 12.0 | 0.00 | 0.01 | 0.00 | 97 | 1017.5 |
| 20260903073304 | 64 | 214 | 5.0 | 13.0 | 0.00 | 0.01 | 0.00 | 97 | 1017.4 |
| 20260903072804 | 64 | 225 | 3.0 | 9.0 | 0.00 | 0.01 | 0.00 | 97 | 1017.4 |
| 20260903071804 | 64 | 222 | 5.0 | 9.0 | 0.00 | 0.01 | 0.00 | 97 | 1017.3 |
| 20260903064803 | 63 | 234 | 5.0 | 10.0 | 0.00 | 0.01 | 0.00 | 97 | 1017.2 |
| 20260903063304 | 63 | 207 | 6.0 | 13.0 | 0.00 | 0.01 | 0.00 | 97 | 1017.1 |
| 20260903062306 | 63 | 223 | 6.0 | 13.0 | 0.00 | 0.01 | 0.00 | 97 | 1017.1 |
| 20260903061804 | 63 | 232 | 6.0 | 12.0 | 0.00 | 0.01 | 0.00 | 97 | 1017.1 |
| 20260903060804 | 63 | 242 | 8.0 | 15.0 | 0.00 | 0.01 | 0.00 | 97 | 1017.2 |
| 20260903060304 | 63 | 244 | 6.0 | 15.0 | 0.00 | 0.01 | 0.00 | 97 | 1017.0 |
| 20260903055804 | 63 | 226 | 7.0 | 14.0 | 0.00 | 0.01 | 0.00 | 97 | 1017.0 |
| 20260903055306 | 63 | 247 | 5.0 | 12.0 | 0.00 | 0.01 | 0.00 | 97 | 1017.0 |
| 20260903054804 | 63 | 234 | 9.0 | 17.0 | 0.00 | 0.01 | 0.00 | 97 | 1017.0 |
| 20260903054304 | 63 | 245 | 5.0 | 12.0 | 0.00 | 0.01 | 0.00 | 97 | 1017.1 |
| 20260903052804 | 63 | 241 | 5.0 | 13.0 | 0.00 | 0.01 | 0.00 | 97 | 1017.1 |
| 20260903052307 | 63 | 236 | 6.0 | 13.0 | 0.00 | 0.01 | 0.00 | 97 | 1016.9 |
| 20260903050804 | 63 | 213 | 6.0 | 14.0 | 0.00 | 0.01 | 0.00 | 97 | 1016.9 |
| 20260903050304 | 63 | 239 | 6.0 | 12.0 | 0.00 | 0.01 | 0.00 | 97 | 1016.7 |
| 20260903045804 | 63 | 222 | 5.0 | 14.0 | 0.00 | 0.01 | 0.00 | 97 | 1016.7 |
| 20260903045306 | 63 | 237 | 5.0 | 12.0 | 0.00 | 0.01 | 0.00 | 97 | 1016.7 |
| 20260903044804 | 63 | 220 | 6.0 | 13.0 | 0.00 | 0.01 | 0.00 | 97 | 1016.7 |
| 20260903044304 | 63 | 212 | 6.0 | 12.0 | 0.00 | 0.01 | 0.00 | 97 | 1016.6 |
| 20260903043804 | 63 | 242 | 6.0 | 12.0 | 0.00 | 0.01 | 0.00 | 97 | 1016.6 |
| 20260903041304 | 63 | 223 | 8.0 | 20.0 | 0.00 | 0.01 | 0.00 | 97 | 1016.4 |
| 20260903035804 | 63 | 219 | 7.0 | 13.0 | 0.00 | 0.01 | 0.00 | 97 | 1016.6 |
| 20260903033304 | 63 | 243 | 9.0 | 16.0 | 0.00 | 0.01 | 0.00 | 97 | 1016.6 |
| 20260903032306 | 63 | 221 | 6.0 | 12.0 | 0.00 | 0.01 | 0.00 | 97 | 1016.4 |
| 20260903031804 | 63 | 233 | 6.0 | 16.0 | 0.00 | 0.01 | 0.00 | 97 | 1016.4 |
| 20260903031303 | 63 | 233 | 6.0 | 12.0 | 0.00 | 0.01 | 0.00 | 97 | 1016.7 |
| 20260903024804 | 63 | 193 | 4.0 | 14.0 | 0.00 | 0.01 | 0.00 | 97 | 1016.6 |
| 20260903023803 | 63 | 226 | 6.0 | 12.0 | 0.00 | 0.01 | 0.00 | 97 | 1016.8 |
| 20260903020804 | 63 | 219 | 6.0 | 15.0 | 0.00 | 0.01 | 0.00 | 97 | 1016.9 |
| 20260903014304 | 63 | 224 | 5.0 | 14.0 | 0.00 | 0.01 | 0.00 | 97 | 1017.1 |
| 20260903013804 | 63 | 219 | 5.0 | 13.0 | 0.00 | 0.01 | 0.00 | 97 | 1017.1 |
| 20260903013304 | 63 | 238 | 7.0 | 13.0 | 0.00 | 0.01 | 0.00 | 97 | 1017.0 |
| 20260903012804 | 63 | 232 | 5.0 | 12.0 | 0.00 | 0.01 | 0.00 | 97 | 1017.0 |
| 20260903011804 | 63 | 218 | 6.0 | 15.0 | 0.00 | 0.01 | 0.00 | 97 | 1017.2 |
| 20260903011304 | 63 | 236 | 5.0 | 15.0 | 0.00 | 0.01 | 0.00 | 97 | 1017.4 |
| 20260903010804 | 63 | 209 | 7.0 | 18.0 | 0.00 | 0.01 | 0.00 | 97 | 1017.4 |
| 20260903010304 | 63 | 216 | 7.0 | 15.0 | 0.00 | 0.01 | 0.00 | 97 | 1017.5 |
| 20260903003804 | 63 | 238 | 7.0 | 17.0 | 0.00 | 0.01 | 0.00 | 97 | 1017.2 |
| 20260903002306 | 63 | 207 | 5.0 | 12.0 | 0.00 | 0.01 | 0.00 | 97 | 1017.1 |
| 20260903001803 | 63 | 220 | 4.0 | 12.0 | 0.00 | 0.01 | 0.00 | 97 | 1017.1 |
| 20260903001304 | 63 | 226 | 5.0 | 14.0 | 0.00 | 0.01 | 0.00 | 97 | 1017.1 |
| 20260902235305 | 63 | 218 | 4.0 | 10.0 | 0.00 | 0.01 | 0.00 | 97 | 1017.4 |
| 20260902234304 | 63 | 244 | 5.0 | 12.0 | 0.00 | 0.01 | 0.00 | 97 | 1017.7 |
| 20260902233804 | 63 | 240 | 4.0 | 13.0 | 0.00 | 0.01 | 0.00 | 97 | 1017.7 |
| 20260902232306 | 63 | 230 | 3.0 | 9.0 | 0.00 | 0.01 | 0.00 | 97 | 1017.8 |
| 20260902231304 | 63 | 240 | 4.0 | 9.0 | 0.00 | 0.01 | 0.00 | 97 | 1017.9 |
| 20260902230813 | 63 | 268 | 5.0 | 12.0 | 0.00 | 0.01 | 0.00 | 97 | 1017.9 |
| 20260902230304 | 63 | 239 | 7.0 | 13.0 | 0.00 | 0.01 | 0.00 | 97 | 1017.6 |
| 20260902225306 | 63 | 226 | 5.0 | 12.0 | 0.00 | 0.01 | 0.01 | 97 | 1017.4 |
| 20260902224304 | 63 | 222 | 4.0 | 12.0 | 0.00 | 0.01 | 0.01 | 97 | 1017.8 |
| 20260902222306 | 63 | 238 | 5.0 | 14.0 | 0.00 | 0.01 | 0.01 | 97 | 1017.6 |
| 20260902221805 | 63 | 241 | 5.0 | 12.0 | 0.00 | 0.01 | 0.01 | 97 | 1017.6 |
| 20260902220304 | 63 | 223 | 7.0 | 16.0 | 0.00 | 0.01 | 0.01 | 97 | 1017.7 |
| 20260902215306 | 63 | 225 | 5.0 | 15.0 | 0.00 | 0.02 | 0.01 | 97 | 1017.7 |
| 20260902214304 | 63 | 238 | 6.0 | 20.0 | 0.00 | 0.02 | 0.01 | 97 | 1017.7 |
| 20260902213804 | 63 | 230 | 7.0 | 17.0 | 0.00 | 0.02 | 0.01 | 97 | 1017.7 |
| 20260902213304 | 63 | 220 | 6.0 | 13.0 | 0.00 | 0.02 | 0.01 | 97 | 1017.7 |
| 20260902212803 | 63 | 242 | 6.0 | 13.0 | 0.00 | 0.02 | 0.01 | 97 | 1017.7 |
| 20260902212306 | 63 | 226 | 6.0 | 17.0 | 0.00 | 0.02 | 0.01 | 97 | 1017.7 |
| 20260902211804 | 63 | 235 | 5.0 | 12.0 | 0.00 | 0.02 | 0.01 | 97 | 1017.7 |
| 20260902211304 | 63 | 234 | 8.0 | 16.0 | 0.00 | 0.02 | 0.01 | 97 | 1017.6 |
| 20260902210804 | 63 | 236 | 5.0 | 12.0 | 0.00 | 0.02 | 0.01 | 97 | 1017.6 |
| 20260902205306 | 63 | 224 | 7.0 | 15.0 | 0.00 | 0.02 | 0.01 | 97 | 1017.5 |
| 20260902204304 | 63 | 243 | 7.0 | 13.0 | 0.00 | 0.02 | 0.01 | 97 | 1017.7 |
| 20260902203804 | 63 | 241 | 8.0 | 16.0 | 0.00 | 0.02 | 0.01 | 97 | 1017.7 |
| 20260902203304 | 63 | 234 | 6.0 | 15.0 | 0.00 | 0.02 | 0.01 | 97 | 1017.5 |
| 20260902202804 | 63 | 229 | 7.0 | 14.0 | 0.00 | 0.02 | 0.01 | 97 | 1017.5 |
| 20260902201804 | 63 | 226 | 9.0 | 22.0 | 0.00 | 0.02 | 0.01 | 97 | 1017.5 |
| 20260902200804 | 63 | 222 | 7.0 | 18.0 | 0.00 | 0.02 | 0.01 | 97 | 1017.6 |
| 20260902200304 | 63 | 231 | 7.0 | 14.0 | 0.00 | 0.02 | 0.01 | 97 | 1017.6 |
| 20260902195306 | 63 | 230 | 7.0 | 20.0 | 0.00 | 0.02 | 0.01 | 97 | 1017.5 |
| 20260902193804 | 63 | 210 | 8.0 | 15.0 | 0.00 | 0.02 | 0.01 | 96 | 1017.4 |
| 20260902193304 | 63 | 216 | 4.0 | 12.0 | 0.00 | 0.02 | 0.01 | 96 | 1017.4 |
| 20260902192803 | 63 | 221 | 5.0 | 13.0 | 0.00 | 0.02 | 0.01 | 96 | 1017.4 |
| 20260902191304 | 62 | 206 | 4.0 | 9.0 | 0.00 | 0.02 | 0.01 | 96 | 1017.6 |
| 20260902190804 | 62 | 203 | 3.0 | 12.0 | 0.00 | 0.02 | 0.01 | 95 | 1017.6 |